This demonstration page uses our WeatherBlox Daily Observations layout. Learn more.

41.55636, -103.73856

Hourly Observations for January 19, 2018

Temp ( °F °C ) Dew Point ( °F °C ) Humidity (%) Winds ( mph kmh ) Pressure ( in mb ) Visibility ( mi km ) Precip ( " mm )
12:53 am 00:53 Clear 32 0 28 -2.2 85 85 Calm 29.8 1009 10 16.09344 0 0
1:53 am 01:53 Clear 34 1.1 28 -2.2 79 79 Calm 29.77 1008 10 16.09344 0 0
2:53 am 02:53 Clear 33 0.6 28 -2.2 82 82 Calm 29.77 1008 10 16.09344 0 0
3:53 am 03:53 Clear 32 0 27 -2.8 82 82 Calm 29.74 1007 10 16.09344 0 0
4:53 am 04:53 Clear 31 -0.6 27 -2.8 85 85 NW 6 9 29.74 1007 10 16.09344 0 0
5:53 am 05:53 Clear 30 -1.1 26 -3.3 85 85 N 5 7 29.74 1007 10 16.09344 0 0
6:53 am 06:53 Clear 30 -1.1 25 -3.9 82 82 Calm 29.74 1007 10 16.09344 0 0
7:53 am 07:53 Sunny 31 -0.6 26 -3.3 82 82 Calm 29.74 1007 10 16.09344 0 0
8:53 am 08:53 Sunny 34 1.1 27 -2.8 76 76 NNE 7 11 29.74 1007 10 16.09344 0 0
9:53 am 09:53 Sunny 35 1.7 30 -1.1 82 82 Calm 29.77 1008 10 16.09344 0 0
10:53 am 10:53 Sunny 37 2.8 30 -1.1 76 76 Calm 29.77 1008 10 16.09344 0 0
11:53 am 11:53 Sunny 38 3.3 31 -0.6 76 76 NW 3 6 29.71 1006 10 16.09344 0 0
12:53 pm 12:53 Sunny 38 3.3 32 0 79 79 N 3 6 29.71 1006 10 16.09344 0 0
1:53 pm 13:53 Sunny 38 3.3 32 0 79 79 NE 6 9 29.68 1005 10 16.09344 0 0
2:53 pm 14:53 Sunny 42 5.6 32 0 68 68 E 3 6 29.68 1005 10 16.09344 0 0
3:53 pm 15:53 Sunny 40 4.4 32 0 73 73 Calm 29.71 1006 10 16.09344 0 0
4:53 pm 16:53 Sunny 37 2.8 31 -0.6 79 79 ESE 3 6 29.71 1006 10 16.09344 0 0
5:53 pm 17:53 Clear 38 3.3 29 -1.7 70 70 ESE 8 13 29.74 1007 10 16.09344 0 0
6:53 pm 18:53 Clear 36 2.2 29 -1.7 76 76 NE 12 19 29.74 1007 10 16.09344 0 0
7:53 pm 19:53 Clear 37 2.8 30 -1.1 76 76 NE 3 6 29.77 1008 10 16.09344 0 0
8:53 pm 20:53 Clear 36 2.2 30 -1.1 79 79 E 7 11 29.77 1008 10 16.09344 0 0
9:53 pm 21:53 Clear 35 1.7 29 -1.7 78 78 S 3 6 29.8 1009 10 16.09344 0 0
10:53 pm 22:53 Clear 31 -0.6 28 -2.2 89 89 Calm 29.8 1009 10 16.09344 0 0
11:53 pm 23:53 Clear 33 0.6 30 -1.1 89 89 Calm 29.8 1009 10 16.09344 0 0

Powered by AerisWeather